Flag for U.S.A. Weather past 2 weeks in Topeka, Kansas, U.S.A.

Now
51 °F

Clear.


Feels Like: 48 °F
Forecast: 50 / 84 °F
Wind: 9 mph from Southeast

Location: Philip Billard Municipal Airport

Current Time: Apr 1, 2015 at 5:03:59 AM

Latest Report: Apr 1, 2015 at 3:53 AM


Visibility: 10 mi

Pressure: 29.87 "Hg

Humidity: 54%

Dew point: 35 °F

Location of TopekaLocation

Historic Weather in Topeka — Graph

°F

Topeka temperature yesterday

Maximum temperature yesterday: 78 °F (at 3:53 PM)
Minimum temperature yesterday: 42 °F (at 5:53 AM)
Average temperature yesterday: 61 °F

Past Weeks' High & Low Weather Summary

 TemperatureHumidityPressure
High78 °F (Mar 31, 3:53 PM)97% (Mar 25, 9:53 AM)30.40 "Hg (Mar 25, 9:53 AM)
Low29 °F (Mar 20, 5:53 AM)16% (Mar 30, 3:53 PM)29.80 "Hg (Mar 24, 2:53 PM)
Average49 °F60%30.09 "Hg
* Reported Mar 17 3:53 AM — Apr 1 3:53 AM, Topeka, Weather by CustomWeather, © 2015

Note: Actual official high and low records may vary slightly from our data, if they occured in-between our weather recording intervals... More about our weather records

Advertising

Topeka weather history for previous 24 hours

 ConditionsComfort  
Time TempWeatherWind HumidityBarometerVisibility
3:53 AM
Wed, Apr 1
51 °FClear.9 mph54%29.87 "Hg10 mi
2:53 AM55 °FClear.10 mph47%29.88 "Hg10 mi
1:53 AM51 °FClear.7 mph59%29.90 "Hg10 mi
12:53 AM51 °FClear.7 mph61%29.88 "Hg10 mi
11:53 PM
Tue, Mar 31
52 °FClear.5 mph59%29.90 "Hg10 mi
10:53 PM56 °FClear.3 mph55%29.91 "Hg10 mi
9:53 PM58 °FClear.No wind47%29.92 "Hg10 mi
8:53 PM59 °FClear.No wind38%29.91 "Hg10 mi
7:53 PM68 °FSunny.6 mph27%29.90 "Hg10 mi
6:53 PM73 °FSunny.9 mph24%29.90 "Hg10 mi
5:53 PM76 °FSunny.12 mph22%29.90 "Hg10 mi
4:53 PM78 °FSunny.7 mph19%29.90 "Hg10 mi
3:53 PM78 °FSunny.10 mph19%29.92 "Hg10 mi
2:53 PM77 °FSunny.9 mph19%29.94 "Hg10 mi
1:53 PM76 °FSunny.10 mph19%29.97 "Hg10 mi
12:53 PM75 °FSunny.10 mph19%29.99 "Hg10 mi
11:53 AM72 °FSunny.9 mph22%30.01 "Hg10 mi
10:53 AM68 °FSunny.14 mph30%30.02 "Hg10 mi
9:53 AM63 °FSunny.3 mph41%30.01 "Hg10 mi
8:53 AM55 °FSunny.6 mph55%30.00 "Hg10 mi
7:53 AM48 °FClear.3 mph66%29.98 "Hg10 mi
6:53 AM42 °FClear.No wind79%29.96 "Hg8 mi
5:53 AM42 °FClear.3 mph79%29.93 "Hg7 mi
Weather by CustomWeather, © 2015

See weather overviewHow to use our weather pages